This is the latest recevied weather packets stored in our database for station/object KC0SIQ-13. If no packets are shown the sender has not sent any weather packets the latest 10 day(s).
| Time | Temp. | Humidity | Pressure | Rain* | Wind** | Luminosity | Snow |
|---|---|---|---|---|---|---|---|
| 1777733291 | 10.56° C | 45% | 1020.2 hPa | 0 mm | - | 36 W/m² | - |
| 1777732989 | 10° C | 45% | 1019.8 hPa | 0 mm | - | 350 W/m² | - |
| 1777732684 | 10° C | 46% | 1019.7 hPa | 0 mm | - | 361 W/m² | - |
| 1777732381 | 9.44° C | 46% | 1019.9 hPa | 0 mm | - | 337 W/m² | - |
| 1777732080 | 9.44° C | 47% | 1019.9 hPa | 0 mm | - | 305 W/m² | - |
| 1777731776 | 8.33° C | 49% | 1019.9 hPa | 0 mm | - | 263 W/m² | - |
| 1777731473 | 7.78° C | 51% | 1019.7 hPa | 0 mm | - | 251 W/m² | - |
| 1777731171 | 7.78° C | 52% | 1019.9 hPa | 0 mm | - | 173 W/m² | - |
| 1777730869 | 7.22° C | 52% | 1020 hPa | 0 mm | - | 38 W/m² | - |
| 1777730566 | 7.22° C | 52% | 1019.9 hPa | 0 mm | - | 31 W/m² | - |
| 1777730262 | 7.22° C | 52% | 1019.7 hPa | 0 mm | - | 29 W/m² | - |
| 1777729959 | 6.67° C | 53% | 1019.8 hPa | 0 mm | - | 32 W/m² | - |
| 1777729655 | 6.67° C | 53% | 1020.2 hPa | 0 mm | - | 27 W/m² | - |
| 1777729352 | 6.11° C | 55% | 1019.8 hPa | 0 mm | - | 28 W/m² | - |
| 1777729048 | 5.56° C | 56% | 1020 hPa | 0 mm | - | 28 W/m² | - |
| 1777728745 | 5.56° C | 56% | 1019.9 hPa | 0 mm | - | 24 W/m² | - |
| 1777728442 | 5° C | 58% | 1020 hPa | 0 mm | - | 23 W/m² | - |
| 1777728139 | 4.44° C | 59% | 1019.8 hPa | 0 mm | - | 23 W/m² | - |
| 1777727836 | 3.89° C | 61% | 1020 hPa | 0 mm | - | 22 W/m² | - |
| 1777727534 | 3.33° C | 66% | 1020 hPa | 0 mm | - | 23 W/m² | - |
| 1777727230 | 1.67° C | 72% | 1019.9 hPa | 0 mm | - | 20 W/m² | - |
| 1777726928 | 1.11° C | 74% | 1019.7 hPa | 0 mm | - | 20 W/m² | - |
| 1777726624 | 0.56° C | 80% | 1019.8 hPa | 0 mm | - | 18 W/m² | - |
| 1777726322 | 0.56° C | 80% | 1019.6 hPa | 0 mm | - | 17 W/m² | - |
| 1777726018 | 0° C | 81% | 1019.6 hPa | 0 mm | - | 15 W/m² | - |
* Rain latest hour (hover to see other rain measurements)
** Current wind speed in m/s (hover to see current wind gust speed)